Regional Weather Roundup
Issued by NWS

Home | Current Version | Previous Version | Graphics & Text | Print | Product List | Glossary On
Versions: 1 2 3 4 5 6 7 8 9 10 11 12 13 14 15 16 17 18 19 20 21 22 23 24 25 26 27 28 29 30 31 32 33 34 35 36 37 38 39 40 41 42 43 44 45 46 47 48 49 50
000
ASUS43 KMPX 261601
RWRMN
WEATHER ROUNDUP FOR MINNESOTA
NATIONAL WEATHER SERVICE TWIN CITIES/CHANHASSEN MN
1100 AM CDT MON JUN 26 2017


NOTE: "FAIR" INDICATES FEW OR NO CLOUDS BELOW 12,000 FEET WITH NO
SIGNIFICANT WEATHER AND/OR OBSTRUCTIONS TO VISIBILITY. N/A MEANS
CURRENT SKY AND/OR WEATHER CONDITIONS ARE NOT AVAILABLE.

MNZ060>063-068>070-261700-
   Twin Cities Metro

CITY           SKY/WX    TMP DP  RH WIND       PRES   REMARKS
TWIN CITIES    MOSUNNY   64  43  46 N14       30.18F
ST PAUL        MOSUNNY   63  45  51 N10G18    30.19S
CRYSTAL        MOSUNNY   64  42  44 N12       30.18S
BLAINE         MOSUNNY   64  45  48 N9        30.18S
LAKEVILLE      SUNNY     61  43  51 NW12      30.18F
EDEN PRAIRIE   MOSUNNY   65  44  46 NW14      30.18F
SOUTH ST PAUL  MOSUNNY   64  42  45 N9        30.18S
LAKE ELMO      FAIR      63  46  55 N7        30.19S
$$
MNZ001>005-007-008-013>017-022>024-027-028-261700-
   Northwest Minnesota

CITY           SKY/WX    TMP DP  RH WIND       PRES   REMARKS
BEMIDJI        SUNNY     64  44  48 NW10G16   30.19S
HALLOCK        SUNNY     66  45  45 NW13      30.19S
ROSEAU         SUNNY     64  52  63 W10       30.16F
WARROAD        SUNNY     64  48  55 W16       30.15F
CROOKSTON      SUNNY     66  41  39 NW9G17    30.21F
FOSSTON        SUNNY     63  45  51 NW13      30.22S
DETROIT LAKES  SUNNY     63  43  48 N8G16     30.24S
MOORHEAD       SUNNY     64  43  45 NW9       30.24F
PARK RAPIDS    SUNNY     65  40  39 NW9       30.20F
MAHNOMEN       FAIR      63  43  49 NW7       30.22F
$$
MNZ006-009>011-018-025>026-261700-
   North Central Minnesota

CITY           SKY/WX    TMP DP  RH WIND       PRES   REMARKS
BAUDETTE       MOSUNNY   65  49  56 NW13      30.15F
FLAG ISLAND    MOSUNNY   63  45  51 NW14G22   30.12F
INTL FALLS     MOSUNNY   65  50  58 W8        30.11F
WASKISH        CLOUDY    64  46  52 NW8       30.16F
BIG FORK       MOSUNNY   59  46  63 NW3       30.16S
LONGVILLE      MOSUNNY   63  46  55 NW9       30.18F
GRAND RAPIDS   PTSUNNY   61  44  53 NW14      30.18F
CRANE LAKE     MOSUNNY   61  48  63 N3        30.12F
ORR            SUNNY     63  46  55 NW7       30.10S
COOK           MOSUNNY   61  45  55 W9        30.13S
WALKER         FAIR      62  43  51 NW9       30.19S
$$
MNZ012-019>021-037-261700-
   Northeast Minnesota

CITY           SKY/WX    TMP DP  RH WIND       PRES   REMARKS
DULUTH         MOSUNNY   63  47  55 NW10      30.12F
ELY            SUNNY     59  46  63 NW6       30.10F
HIBBING        MOSUNNY   61  46  57 NW14      30.14S
EVELETH        SUNNY     62  41  45 NW10G17   30.13F
DULUTH HARBOR  SUNNY     63  48  59 CALM      30.13S
TWO HARBORS    MOSUNNY   66  52  59 NW7       30.09F
SILVER BAY     SUNNY     64  48  55 N5        30.08F
GRAND MARAIS     N/A     49  44  83 SW7       30.06S
G MARAIS ARPRT MOSUNNY   57  45  62 W8        30.08S
$$
MNZ029>031-032-039>041-046>048-054>057-064-261700-
   West Central Minnesota

CITY           SKY/WX    TMP DP  RH WIND       PRES   REMARKS
FERGUS FALLS   SUNNY     63  45  51 NW8G17    30.22S
WHEATON        SUNNY     63  43  48 W8        30.27F
MORRIS         SUNNY     64  45  48 NW8       30.24S
ALEXANDRIA     SUNNY     63  43  48 N10       30.24S
ELBOW LAKE     FAIR      60  44  55 NW5       30.25S
WADENA         SUNNY     63  45  51 NW12      30.22S
GLENWOOD       SUNNY     63  45  51 NW9G17    30.23S
APPLETON       SUNNY     64  39  39 N8        30.24S
BENSON         MOSUNNY   64  43  45 N6        30.25F
ORTONVILLE     SUNNY     63  39  42 NW6       30.25S
MADISON        SUNNY     64  45  48 N6        30.25S
WILLMAR        FAIR      63  43  48 NW7       30.24S
$$
MNZ033>034-036-042>043-049>051-058-059-261700-
   Central Minnesota

CITY           SKY/WX    TMP DP  RH WIND       PRES   REMARKS
ST CLOUD       SUNNY     64  44  48 NW9G17    30.20S
SAUK CENTRE    FAIR      62  43  49 NW13      30.23S
PAYNESVILLE    SUNNY     64  41  44 NW10      30.23S
AITKIN         MOSUNNY   63  45  51 NW9       30.16S
PINE RIVER     SUNNY     63  45  51 N9G18     30.22S
BRAINERD       SUNNY     64  42  44 N9        30.20S
STAPLES        SUNNY     64  41  42 NW9       30.21S
LONG PRAIRIE   FAIR      61  43  51 W10       30.22F
LITTLE FALLS   SUNNY     63  41  45 N8        30.21S
LITCHFIELD     SUNNY     64  46  52 N8        30.22S
BUFFALO        MOSUNNY   63  43  48 NW8       30.21S
MAPLE LAKE     SUNNY     64  47  54 NW8       30.21F
HUTCHINSON     SUNNY     63  45  51 NW12      30.22F
$$
MNZ037-044-045-052-053-261700-
   East Central Minnesota

CITY           SKY/WX    TMP DP  RH WIND       PRES   REMARKS
PRINCETON      SUNNY     66  45  45 NW9       30.19S
MORA           MOSUNNY   63  45  51 N9        30.19S
CAMBRIDGE      PTSUNNY   66  48  52 NW12G18   30.16S
RUSH CITY      HVY RAIN  63  45  51 N12       30.17S
MOOSE LAKE     MOSUNNY   61  45  55 N7        30.14S
HINCKLEY       FAIR      63  46  55 N9G16     30.16S
CLOQUET        MOSUNNY   63  43  48 N13G18    30.14S
MCGREGOR       MOSUNNY   63  46  55 NW13      30.17S
$$
MNZ071>073-080-081-089-090-097-098-261700-
   Southwest Minnesota

CITY           SKY/WX    TMP DP  RH WIND       PRES   REMARKS
MONTEVIDEO     SUNNY     64  43  45 NE8       30.24F
GRANITE FALLS  SUNNY     64  45  49 NW8       30.25F
CANBY          SUNNY     64  42  45 N13       30.26S
MARSHALL       SUNNY     62  43  49 NE12G18   30.24F
REDWOOD FALLS  SUNNY     64  41  42 N9        30.22F
OLIVIA         SUNNY     63  43  48 N8        30.22S
PIPESTONE      SUNNY     63  39  42 NE8       30.24S
WINDOM         SUNNY     63  43  48 N12G17    30.23S
WORTHINGTON    SUNNY     62  44  51 N6        30.24S
JACKSON        SUNNY     61  41  48 N10G16    30.23S
TRACY          MOSUNNY   62  46  55 N8        30.24F
SLAYTON        SUNNY     59  42  53 N10       30.25S
$$
MNZ065>067-074>077-082>085-091>093-261700-
   South Central Minnesota

CITY           SKY/WX    TMP DP  RH WIND       PRES   REMARKS
NEW ULM        SUNNY     63  39  42 N9        30.21F
ST JAMES       SUNNY     64  43  45 N12       30.23S
FAIRMONT       SUNNY     63  46  54 N13       30.22S
GLENCOE        MOSUNNY   64  47  55 N8        30.20S
FARIBAULT      MOSUNNY   63  43  48 N12       30.19F
OWATONNA       SUNNY     63  46  55 NW8       30.19F
WASECA         SUNNY     63  43  48 N13G20    30.21S
ALBERT LEA     SUNNY     63  43  48 NW6       30.20S
$$
MNZ078>079-086>088-094>096-261700-
   Southeast Minnesota

CITY           SKY/WX    TMP DP  RH WIND       PRES   REMARKS
ROCHESTER      MOSUNNY   62  46  55 MISG      30.18F
RED WING       MOSUNNY   63  39  42 NW10G16   30.16F
STANTON        MOSUNNY   63  44  50 N10       30.17F
DODGE CENTER   MOSUNNY   61  43  51 NW13G18   30.18F
WINONA         SUNNY     63  43  48 N9G17     30.17S
AUSTIN         MOSUNNY   61  43  51 NW13      30.18S
PRESTON        PTSUNNY   59  45  59 N7G16     30.19R
$$
ABBREVIATIONS USED IN REMARKS
   TC - TEMPERATURES IN CELSIUS
  WCI - WIND CHILL INDEX
   HX - HEAT INDEX
  VSB - VISIBILITY
$$




USA.gov is the U.S. government's official web portal to all federal, state and local government web resources and services.